Location: Austin
(30.3000°N, 97.7500°W)
Time: 12:04:56
(UTC-05:00)

Nadezhda 1 Rocket - Pass Details

Date: 26 May 2023
Orbit: 941 x 1004 km, 83.0° (Epoch: 30 May)

Event Time Altitude Azimuth Distance (km) Brightness Sun altitude
Rises 21:05:35 0° 351° (N) 3,688 7.7 -8.6°
Reaches altitude 10° 21:08:07 10° 349° (N) 2,728 7.0 -9.1°
Maximum altitude 21:14:19 70° 267° (W) 1,021 4.3 -10.2°
Drops below altitude 10° 21:20:23 10° 185° (S) 2,672 6.0 -11.3°
Sets 21:22:52 0° 183° (S) 3,607 6.7 -11.7°
